SCP
1 1 1 1 0 0 0 0 0 0 0 0 0 0 0 0 0 0 0 0 0 0 0 0 1 1 1 1 0 0 0 0 0 0 0 0 0 0 0 0 0 0 0 0
1 1 1 0 0 0 0 0 0 0 0 0 0 0 0 0 0 0 0 0 0 0 0 0 1 1 1 1 0 0 0 0 0 0 0 0 0 0 0 0 0 0 0 0
1 0 0 0 0 0 0 0 0 0 0 0 0 0 0 0 0 0 0 0 0 0 0 0 1 1 1 1 0 0 0 0 0 0 0 0 0 0 0 0 0 0 0 0
0 0 0 0 0 0 0 0 0 0 0 0 0 0 0 0 0 0 0 0 0 0 0 0 1 1 2 1 0 0 0 0 0 0 0 0 0 0 0 0 0 0 0 0
0 0 0 0 0 0 0 0 0 0 0 0 0 0 0 0 0 0 0 0 0 0 0 0 0 1 1 1 1 0 0 0 0 0 0 0 0 0 0 0 0 0 0 0
0 0 0 0 0 0 0 0 0 0 0 0 0 0 0 0 0 0 0 0 0 0 0 0 0 0 1 1 1 1 0 0 0 0 1 0 0 0 0 0 0 0 0 0
0 0 0 0 0 0 1 1 1 0 0 0 0 0 0 0 0 0 0 0 0 0 0 0 0 0 0 1 1 1 1 0 0 0 1 1 0 0 0 0 0 0 0 0
0 0 0 0 0 0 1 1 1 0 0 0 0 0 0 0 0 0 0 0 0 0 0 0 0 0 0 0 1 1 1 0 0 0 1 1 1 1 0 0 0 0 0 0
0 0 0 0 0 0 0 1 1 0 0 0 0 0 0 0 0 0 0 0 0 0 0 0 0 0 0 0 0 0 0 0 0 0 1 1 1 1 1 0 0 0 0 0
0 0 0 0 0 0 0 1 1 1 0 0 0 0 0 0 0 0 0 0 0 0 0 0 0 0 0 0 0 0 0 0 0 0 0 1 1 1 1 1 0 0 0 0
0 0 0 0 0 0 1 1 1 0 0 0 0 0 0 0 0 0 0 0 0 0 0 0 0 0 0 0 0 0 0 0 0 0 0 0 1 2 2 1 1 0 0 0
0 0 0 0 0 0 0 1 0 0 0 0 0 0 0 0 0 0 0 0 0 0 0 0 0 0 0 0 0 0 0 0 0 0 0 0 1 2 2 2 1 1 0 0
0 1 0 0 0 0 0 0 0 0 0 0 0 0 0 0 0 0 0 0 0 0 0 0 0 0 0 0 0 0 0 0 0 0 0 0 0 1 2 2 2 1 1 0
1 1 1 0 0 0 0 0 0 0 0 0 0 0 0 0 0 0 0 0 0 0 0 0 0 0 0 0 0 0 0 0 0 0 0 0 0 0 1 1 2 2 1 1
1 1 0 0 0 0 0 0 0 0 0 0 0 0 0 0 0 0 0 0 0 0 0 0 0 0 0 0 0 0 0 0 0 0 0 0 0 0 0 0 1 1 2 2
1 0 0 0 0 0 0 0 0 0 0 0 0 0 0 0 0 0 0 0 0 0 0 0 0 0 0 0 0 0 0 0 0 0 0 0 0 0 0 0 0 1 1 1
0 0 0 0 0 0 0 0 0 0 0 0 0 0 0 0 0 0 0 0 0 0 0 0 0 0 0 0 0 0 0 0 0 0 0 0 0 0 0 0 0 0 0 1
0 0 0 0 0 0 0 0 0 0 0 0 0 0 0 0 0 0 0 0 0 0 0 0 0 0 0 0 0 0 0 0 0 0 0 0 0 0 0 0 0 0 0 0
0 0 0 0 0 0 0 0 0 0 0 0 0 0 0 0 0 0 0 0 0 0 0 0 0 0 0 0 0 0 0 0 0 0 0 0 0 0 0 0 0 0 0 0
0 0 0 0 0 0 0 0 0 0 0 0 0 0 0 0 0 0 0 0 0 0 0 0 0 0 0 0 0 0 0 0 0 0 0 0 0 0 0 0 0 0 0 0
0 0 0 0 0 0 0 0 0 0 0 0 0 0 0 0 0 0 0 0 0 0 0 0 0 0 0 0 0 0 0 0 0 0 0 0 0 0 0 0 0 0 0 0
0 0 0 0 0 0 0 0 0 0 0 0 0 0 0 0 0 0 0 0 0 0 0 0 0 0 0 0 0 0 0 0 0 0 0 0 0 0 0 0 0 0 0 0
0 0 0 0 0 0 0 0 0 0 0 0 0 0 0 0 0 0 0 0 0 0 0 0 0 0 0 0 0 0 0 0 0 0 0 0 0 0 0 0 0 0 0 0
0 0 0 0 0 0 0 0 0 0 0 0 0 0 0 0 0 0 0 0 0 0 0 0 0 0 0 0 0 0 0 0 0 0 0 0 0 0 0 0 0 0 0 0
0 0 0 0 0 0 0 0 0 0 0 0 0 0 0 0 0 0 0 0 0 0 0 0 0 0 0 0 0 0 0 0 0 0 0 0 0 0 0 0 0 0 0 0
0 0 0 0 0 0 0 0 0 0 0 0 0 0 0 0 0 0 0 0 0 0 0 0 0 0 0 0 0 0 0 0 0 0 0 0 0 0 0 0 0 0 0 0
Wind_Speed
10 10 15 18 19 14 9 10 11 9 6 9 13 14 13 11 10 10 9 9 9 9 9 9 10 10 9 10 11 12 12 12 11 9 9 9 9 8 7 7 9 10 10 10
10 19 18 14 16 16 15 13 12 7 6 6 9 14 13 13 14 12 12 11 10 9 9 8 9 10 11 11 11 12 12 12 12 11 10 8 7 7 8 7 9 11 11 11
20 12 16 16 16 18 18 17 13 9 4 5 6 12 15 15 15 15 13 11 11 11 10 9 9 9 10 11 12 11 12 13 13 12 8 7 7 6 8 10 10 11 12 12
18 15 14 17 18 18 17 15 13 10 6 5 6 9 10 11 14 15 14 12 12 12 10 9 9 9 10 10 10 11 11 12 12 13 11 12 11 12 12 9 9 10 12 13
13 15 17 19 19 17 10 7 10 10 8 8 8 10 8 9 13 13 14 14 13 11 10 9 8 8 8 9 9 10 10 11 12 13 14 13 13 11 8 7 9 10 11 13
13 10 14 15 13 12 7 4 3 5 6 15 16 13 10 10 13 10 10 11 11 10 9 8 7 6 6 7 8 9 10 11 11 12 13 15 15 13 10 10 10 10 9 11
15 14 9 7 11 11 10 8 6 9 11 13 11 13 12 8 9 10 9 8 7 7 7 7 7 6 6 6 7 8 9 10 10 12 13 14 15 14 14 12 11 10 9 10
15 14 16 11 14 13 17 15 11 9 8 5 9 15 10 7 6 6 6 5 5 5 6 6 6 5 4 5 6 7 9 9 9 10 11 11 12 10 10 12 10 10 9 10
13 12 11 14 11 13 15 17 11 5 3 4 7 7 6 5 6 6 6 5 5 5 5 4 3 3 3 3 4 5 6 7 7 8 9 9 10 10 10 10 10 9 9 8
6 8 9 12 10 14 11 9 7 10 9 10 8 10 8 8 9 8 7 7 6 4 3 2 1 1 1 1 2 3 4 6 6 7 7 7 8 9 9 8 9 9 9 9
10 7 7 12 18 19 14 14 10 8 7 7 7 7 5 8 9 9 8 6 5 3 2 1 0 0 1 0 0 1 2 3 4 5 6 7 7 8 8 9 9 9 9 9
12 6 7 10 9 12 16 17 16 11 9 7 6 7 0 2 5 6 5 4 3 3 2 1 1 1 1 1 1 1 2 2 3 4 5 6 6 6 7 8 9 9 9 9
12 8 8 7 6 10 13 15 17 12 7 7 8 8 2 1 2 3 3 3 2 2 1 1 1 1 1 1 1 1 2 2 3 3 3 4 5 5 6 7 7 8 8 9
12 8 10 13 9 10 11 14 15 15 12 12 13 12 9 4 3 1 1 1 1 2 1 1 1 2 2 2 2 2 3 3 3 3 3 3 4 5 6 6 6 7 8 8
8 9 9 9 6 7 10 14 17 19 17 13 13 14 14 8 5 3 3 2 1 1 1 1 2 2 3 3 3 3 3 4 3 3 4 4 4 4 5 5 6 6 7 8
8 6 7 10 10 9 10 13 16 19 18 16 14 16 11 8 5 4 2 2 2 2 1 1 2 2 3 4 4 4 4 4 4 4 4 5 5 5 5 6 6 6 7 7
7 6 7 9 9 8 15 16 16 15 14 15 17 15 8 8 8 5 3 2 2 1 0 1 2 3 4 4 4 5 5 5 4 4 5 5 5 6 6 6 6 7 7 7
9 7 5 5 6 15 11 10 13 16 17 14 12 10 9 8 5 3 2 3 3 1 1 2 3 4 4 5 5 5 5 5 5 5 6 5 5 6 7 6 7 7 6 6
8 8 6 6 9 9 8 8 12 14 15 13 13 10 7 4 2 2 1 2 2 2 1 1 3 3 4 5 6 6 6 5 5 6 7 7 6 7 7 8 8 7 6 7
9 8 7 7 8 11 10 8 9 8 12 9 10 11 8 6 7 6 2 2 2 2 2 2 3 4 4 5 6 5 5 6 6 7 8 8 7 7 8 9 8 7 6 7
10 9 11 10 9 8 6 5 8 11 11 6 7 7 7 8 6 3 3 3 3 3 3 3 3 3 4 5 5 5 6 6 7 8 8 8 7 8 8 8 7 7 6 6
12 10 11 9 10 12 5 6 9 6 2 2 3 4 4 3 3 4 4 3 3 3 3 4 3 3 4 5 5 6 7 8 8 8 9 9 8 7 7 7 7 6 6 6
9 9 7 9 8 2 3 4 2 2 3 2 2 2 4 4 3 3 3 3 3 2 2 2 3 4 4 5 5 6 8 8 9 9 9 9 9 7 6 6 7 6 5 5
4 4 4 5 5 4 3 2 1 2 3 3 3 3 4 4 3 2 1 1 1 2 2 2 3 4 5 5 5 5 7 8 8 9 9 9 8 8 7 5 5 5 5 5
5 5 5 6 4 3 3 4 3 3 3 4 3 3 3 4 3 2 1 0 1 1 2 2 2 3 5 5 5 6 7 7 8 8 8 8 7 7 7 6 5 6 6 5
5 6 8 8 7 6 5 4 5 5 4 4 3 2 2 3 3 2 1 0 1 1 2 2 3 4 5 5 6 6 6 6 7 7 7 6 6 6 6 7 7 7 7 8
Wind_Direction
181 200 206 203 208 223 229 225 232 236 211 211 231 243 246 245 245 242 239 237 233 227 220 205 197 192 189 189 189 192 193 192 189 193 196 201 209 210 215 215 207 202 200 199
190 218 216 209 210 220 235 242 243 252 237 229 248 254 252 246 244 239 237 235 237 237 227 214 199 192 191 193 194 195 197 193 193 198 198 200 202 210 216 219 216 208 203 201
211 209 206 214 212 213 223 230 234 238 250 248 270 265 247 246 243 242 237 233 232 234 230 219 208 199 194 196 198 201 201 199 197 195 193 196 203 208 210 213 216 213 208 204
223 220 204 210 215 212 227 222 231 235 230 238 217 267 242 240 239 234 232 230 231 232 230 223 212 205 200 200 199 202 203 202 198 193 196 197 203 211 213 210 210 209 208 209
215 206 208 214 213 210 221 209 221 229 234 247 231 256 255 226 238 232 226 224 226 223 221 225 219 210 203 197 197 201 204 205 201 198 200 203 213 218 216 209 207 207 208 210
229 211 211 219 216 210 201 189 223 235 233 242 228 234 258 216 228 230 227 220 218 217 216 222 223 215 209 198 195 198 203 207 204 203 205 208 215 216 215 214 212 210 209 209
224 227 215 200 200 203 188 174 199 208 217 235 207 223 247 213 218 219 222 222 214 211 213 218 225 221 209 199 197 198 202 209 208 207 209 212 217 218 219 219 217 214 212 212
205 216 205 201 203 198 199 196 201 207 214 227 191 222 240 209 210 206 208 211 215 214 208 211 213 213 210 206 201 199 204 212 213 212 215 217 218 219 223 222 220 219 219 219
203 220 193 198 198 197 199 210 221 243 239 249 227 237 239 194 190 196 202 206 214 213 204 198 197 204 206 208 209 208 210 215 217 218 219 221 222 222 226 226 224 225 225 221
206 212 199 191 192 215 210 187 189 212 220 232 236 227 225 195 199 203 207 208 212 205 182 168 182 207 219 215 225 222 222 222 221 220 222 226 227 228 230 230 230 229 229 225
225 217 199 188 197 202 199 202 204 202 206 214 233 239 208 195 188 188 194 192 182 175 161 171 197 328 28 14 290 257 249 242 238 232 230 232 233 231 232 232 234 233 233 229
206 212 218 216 213 208 207 208 205 209 212 213 231 249 257 124 157 168 179 172 168 164 166 165 125 49 13 313 285 285 276 265 262 253 245 241 239 236 235 237 239 238 239 235
186 194 199 204 218 215 216 215 215 219 219 216 224 243 250 73 128 142 148 150 152 133 108 79 70 29 333 321 319 310 302 295 289 276 265 260 254 249 246 245 245 243 243 242
189 201 210 212 199 189 207 215 216 216 222 227 229 243 252 244 243 246 150 160 132 99 72 42 9 345 339 342 336 328 320 313 310 304 289 280 276 268 264 262 258 253 248 245
197 212 221 242 242 208 211 214 217 224 224 228 237 242 250 247 233 231 225 195 141 102 52 15 355 344 341 340 335 325 315 317 320 317 308 296 294 290 286 281 276 270 262 255
198 209 210 235 236 233 239 225 221 227 229 234 243 250 249 258 254 248 239 175 178 192 213 315 344 343 339 340 337 334 325 321 322 313 304 306 307 303 295 288 283 277 271 265
187 185 196 229 223 230 238 224 224 228 226 224 235 243 239 242 239 227 209 212 221 240 310 30 1 349 343 340 339 331 324 327 325 316 314 316 312 307 303 297 290 281 275 271
189 192 202 210 197 228 234 211 218 229 232 227 234 237 228 226 230 219 199 185 189 156 51 2 355 350 345 340 338 332 330 332 329 322 317 315 313 305 301 295 285 281 278 272
201 189 197 202 223 247 251 215 206 218 234 224 229 233 229 204 233 229 140 138 155 140 95 18 359 348 344 343 340 336 334 333 332 327 322 317 312 305 302 297 290 286 281 275
207 198 200 207 216 226 232 207 196 202 240 221 212 219 214 188 219 225 157 105 89 85 81 46 9 356 351 345 341 338 330 330 327 324 318 316 313 304 297 292 290 288 281 276
192 201 210 218 230 244 240 186 156 196 228 206 196 202 194 200 214 174 123 102 92 74 52 39 18 356 347 343 341 335 331 328 325 322 318 317 313 305 298 296 292 291 286 281
187 192 204 206 220 236 218 167 186 205 172 154 162 175 174 169 128 123 126 120 100 71 46 28 4 342 347 348 346 336 329 327 327 323 319 315 312 309 306 301 299 295 288 283
198 198 192 199 212 208 166 171 177 122 137 133 130 131 138 136 136 130 126 114 96 73 38 21 354 334 345 354 349 330 325 330 328 323 317 313 312 310 306 301 300 298 289 280
214 199 193 213 220 198 176 137 92 95 119 111 107 116 128 139 139 133 116 85 66 45 28 9 349 331 331 340 339 328 326 328 322 317 315 316 316 316 315 307 299 296 293 288
200 187 196 218 214 187 211 196 167 132 111 104 92 104 132 138 142 144 150 131 56 12 3 357 337 321 321 330 332 334 331 327 320 315 315 316 315 314 315 312 303 297 287 276
206 197 200 214 200 195 204 182 158 150 151 148 138 124 114 131 143 137 149 91 39 354 349 336 326 319 320 324 323 327 326 322 317 315 317 315 315 317 317 316 315 312 296 299